DECAYED

STARLINK-5017, 53915 (Decayed)

Orbit data source: Space-Track

STARLINK-5017, 53915 was a payload satellite owned by SpaceX/Seattle (US) in LEO that was launched on Sat, 24 Sep 2022 UTC via an FALCON 9 launch vehicle from the Air Force Eastern Test Range (AFETR). Payload-class satellites include a variety of spacecraft equipped with specific instruments for various scientific and technological missions. These include communications satellites like Starlink; space stations such as the ISS; scientific satellites like the Hubble; Earth observation satellites from companies like Planet Labs, Umbra, and HawkEye 360; GPS; miniature CubeSats for education and research; and military/defense satellites.

Not visible in the next 10 days
Identifier
53915, 2022-119AF
Orbit
Decayed
Country
Flag of USUS
Related business
Manufacturer
SpaceX/Seattle
Mission
Decayed Commercial Communications
Bus & Motor
STARLINK, Unknown motor
Mass
305 kg wet, ~290 kg dry
Launch date (UTC)
2022-09-24 (4 years ago)
Launch vehicle
FALCON 9
Launch site
Air Force Eastern Test Range (AFETR)
Object type
Payload
Rocket body
Debris
Shape & HBR
Box + 1 Pan, 10.1 m
Radar Cross Section
13.562 m², Large (>1 m²)

Expand to show TLE details & history
Last TLE update: 1 week ago

TLE from 1 week ago
0 STARLINK-5017
1 53915U 22119AF  26166.50267637  .05958936  12321-4  30400-3 0  9993
2 53915  53.2024 199.0642 0009176 226.8380 133.1903 16.42109353207096
Epoch: 2026-06-15T12:03Z
TLE epoch observation values (Epoch: 2026-06-15T12:03:51.238Z)
Latitude
-0.00004°
Longitude
114.31254°
Altitude
165.254 km
Speed
7.806 km/s
True Right ascension
13h 16m 15s
True Declination
0° 00' 00"
Sunlit
Object was in full shadow at epoch
Visualization orbit readout
Latitude
Unknown
Longitude
Unknown
Altitude
Unknown
Speed
Unknown
Apparent Right ascension
Unknown
Apparent Declination
Unknown
Sunlit
N/A
Visualization observer readout
Local Sidereal Time
21:33:57
Azimuth
Unknown
Elevation
Unknown
Doppler factor
Unknown
Orbital elements
Apogee altitude
166.458 km
Perigee altitude
154.459 km
Semi-major axis
6,538.596 km
Eccentricity
0.00092
Inclination
53.2024°
RAAN
199.0642°
Arg. of periapsis
226.838°
True anomaly
133.2669°
Mean anomaly
133.1903°
Eccentric anomaly
133.22861°
Mean motion
4.10503 °/min
Orbital period
87.7 mins
BSTAR
0.000304
Loading maneuver chart data...
Computing Atmospheric mass density...
Loading historical data...
Loading historical data...
Loading historical data...
Loading historical data...
Loading historical data...
Loading historical data...
Loading historical data...

Documentation

Showing up to 5 results
|